Miscellaneous Local Product
Issued by NWS Hastings, NE

Home | Current Version | Previous Version | Text Only | Print | Product List | Glossary On
Versions: 1 2 3 4 5 6 7 8 9 10 11 12 13 14 15 16 17 18 19 20 21 22 23 24 25 26 27 28 29 30 31 32 33 34 35 36 37 38 39 40 41 42 43 44 45 46 47 48 49 50
000
AXUS43 KGID 211802
MISGRI

GID CWA HOURLY WEATHER ROUNDUP
NATIONAL WEATHER SERVICE HASTINGS NE
1200 PM CST SUN DEC 21 2014

NOTE: "FAIR" INDICATES FEW OR NO CLOUDS BELOW 12,000 FEET WITH NO
SIGNIFICANT WEATHER AND/OR OBSTRUCTIONS TO VISIBILITY.

...SOUTH CENTRAL NEBRASKA...

CITY           SKY/WX    TMP DP  RH WIND       PRES   REMARKS
GRAND ISLAND   CLOUDY    36  34  92 S20G25    29.74F FOG     WCI  25
HASTINGS       FOG       36  35  96 S17G25    29.74F VSB 3/4 WCI  26
KEARNEY        CLOUDY    34  30  86 S20       29.72F VSB 1/2 WCI  22
ORD            MOSUNNY   35  32  88 S9        29.65F WCI  28
YORK           CLOUDY    37  37 100 S16G24    29.77F FOG     WCI  28
AURORA         FOG       36  36 100 S15G24    29.76F VSB 1   WCI  27
LEXINGTON      SUNNY     40  34  77 S14       29.68F WCI  33
HOLDREGE       FOG       33  32  96 S20G28    29.72F VSB 1/4 WCI  21
HEBRON         CLOUDY    40  38  93 S12G21    29.81F FOG     WCI  33

...NEBRASKA PANHANDLE...

CITY           SKY/WX    TMP DP  RH WIND       PRES   REMARKS
CHADRON        PTSUNNY   40  29  64 S7        29.49F
ALLIANCE       PTSUNNY   40  26  57 SW17      29.54F WCI  31
SCOTTSBLUFF    CLOUDY    41  28  60 S7        29.55F
SIDNEY         CLOUDY    39  25  57 SW16      29.60F WCI  30

...WESTERN AND NORTH CENTRAL NEBRASKA...

CITY           SKY/WX    TMP DP  RH WIND       PRES   REMARKS
VALENTINE      SUNNY     41  29  62 SW10      29.54F
AINSWORTH      SUNNY     37  28  70 S9        29.57F WCI  30
ONEILL         SUNNY     36  32  87 SE8       29.63F WCI  29
BROKEN BOW     SUNNY     42  34  73 S9        29.63F
IMPERIAL       CLOUDY    42  28  57 SW7       29.63F
NORTH PLATTE   MOSUNNY   42  31  64 CALM      29.62F
MCCOOK         SUNNY     45  32  60 S10       29.67F

...EASTERN NEBRASKA...

CITY           SKY/WX    TMP DP  RH WIND       PRES   REMARKS
NORFOLK        CLOUDY    39  36  89 S14G22    29.70F WCI  31
SO SIOUX CITY  CLOUDY    42  38  85 S18       29.74F
TEKAMAH        CLOUDY    41  38  89 S24       29.79F
COLUMBUS       CLOUDY    37  34  87 S16       29.76F WCI  28
ALBION         CLOUDY    36  34  93 S10       29.72F FOG     WCI  28
OMAHA EPPLEY   CLOUDY    41  38  89 S20G28    29.83F
OFFUTT AFB     CLOUDY    41  37  87 S12       29.82F
MILLARD        CLOUDY    42  38  87 S9G17     29.83F
LINCOLN        CLOUDY    41  38  89 S21G29    29.80F FOG
NEBRASKA CITY  CLOUDY    41  40  98 S20G25    29.86F FOG
BEATRICE       CLOUDY    40  38  91 S21       29.83F WCI  30
FALLS CITY     CLOUDY    41  38  89 S14G21    29.88F

...NORTHERN KANSAS...

CITY           SKY/WX    TMP DP  RH WIND       PRES   REMARKS
GOODLAND       MOSUNNY   47  31  53 S10       29.67F
HILL CITY      CLOUDY    42  37  82 S20G25    29.73F
NORTON         CLOUDY    37  36  93 S14G21    29.71F FOG     WCI  29
PHILLIPSBURG   CLOUDY    45  41  87 S13G18    29.76F
SMITH CENTER   CLOUDY    39  37  93 S15       29.78F WCI  31
BELOIT         CLOUDY    43  39  87 S17       29.80F
HAYS           CLOUDY    43  34  70 S16       29.77F
RUSSELL        CLOUDY    41  40  96 S17       29.77F FOG
CONCORDIA      CLOUDY    41  40  96 S16G24    29.81F
SALINA         CLOUDY    43  39  86 S15G25    29.85F
TOPEKA         CLOUDY   N/A N/A N/A S12       29.91F



USA.gov is the U.S. government's official web portal to all federal, state and local government web resources and services.